| time (UTC) | temp C | wind direction | speed KPH | gust KPH | rain 1hr cm | rain 24hr cm | rain mn cm | humidity % | barometer mb |
| 20260505100344 | 13 | 248 | 0.0 | 1.6 | 0.00 | 0.00 | 0.00 | 75 | 1010.6 |
| 20260505095325 | 13 | 248 | 0.0 | 1.6 | 0.00 | 0.00 | 0.00 | 74 | 1010.5 |
| 20260505094325 | 13 | 248 | 0.0 | 1.6 | 0.00 | 0.00 | 0.00 | 74 | 1010.7 |
| 20260505093341 | 13 | 248 | 0.0 | 1.6 | 0.00 | 0.00 | 0.00 | 73 | 1010.5 |
| 20260505092338 | 13 | 248 | 0.0 | 1.6 | 0.00 | 0.00 | 0.00 | 74 | 1010.5 |
| 20260505091328 | 13 | 248 | 0.0 | 1.6 | 0.00 | 0.00 | 0.00 | 73 | 1010.6 |
| 20260505090340 | 14 | 248 | 0.0 | 1.6 | 0.00 | 0.00 | 0.00 | 72 | 1010.3 |
| 20260505085334 | 15 | 248 | 0.0 | 1.6 | 0.00 | 0.00 | 0.00 | 71 | 1010.5 |
| 20260505083324 | 15 | 155 | 0.0 | 1.6 | 0.00 | 0.00 | 0.00 | 70 | 1010.5 |
| 20260505082341 | 15 | 158 | 0.0 | 3.2 | 0.00 | 0.00 | 0.00 | 70 | 1010.4 |
| 20260505080328 | 15 | 243 | 0.0 | 3.2 | 0.00 | 0.00 | 0.00 | 70 | 1010.3 |
| 20260505074324 | 14 | 129 | 0.0 | 1.6 | 0.00 | 0.00 | 0.00 | 70 | 1010.2 |
| 20260505073339 | 15 | 120 | 0.0 | 1.6 | 0.00 | 0.00 | 0.00 | 69 | 1010.2 |
| 20260505072326 | 15 | 120 | 0.0 | 3.2 | 0.00 | 0.00 | 0.00 | 68 | 1010.1 |
| 20260505071339 | 15 | 224 | 0.0 | 1.6 | 0.00 | 0.00 | 0.00 | 67 | 1010.0 |
| 20260505065329 | 15 | 225 | 0.0 | 0.0 | 0.00 | 0.00 | 0.00 | 67 | 1010.2 |
| 20260505064330 | 15 | 225 | 0.0 | 1.6 | 0.00 | 0.00 | 0.00 | 66 | 1010.3 |
| 20260505063345 | 15 | 225 | 0.0 | 1.6 | 0.00 | 0.00 | 0.00 | 67 | 1010.4 |
| 20260505062326 | 15 | 225 | 0.0 | 1.6 | 0.00 | 0.00 | 0.00 | 66 | 1010.4 |
| 20260505061343 | 15 | 225 | 0.0 | 1.6 | 0.00 | 0.00 | 0.00 | 67 | 1010.4 |
| 20260505060339 | 15 | 226 | 0.0 | 1.6 | 0.00 | 0.00 | 0.00 | 66 | 1010.4 |
| 20260505055332 | 16 | 226 | 0.0 | 3.2 | 0.00 | 0.00 | 0.00 | 65 | 1010.4 |
| 20260505054350 | 16 | 264 | 0.0 | 3.2 | 0.00 | 0.00 | 0.00 | 65 | 1010.4 |
| 20260505053337 | 16 | 290 | 1.6 | 1.6 | 0.00 | 0.00 | 0.00 | 65 | 1010.6 |
| 20260505052328 | 15 | 323 | 0.0 | 0.0 | 0.00 | 0.00 | 0.00 | 65 | 1010.4 |
| 20260505051328 | 15 | 323 | 0.0 | 1.6 | 0.00 | 0.00 | 0.00 | 64 | 1010.4 |
| 20260505050342 | 16 | 231 | 0.0 | 1.6 | 0.00 | 0.00 | 0.00 | 64 | 1010.4 |
| 20260505040324 | 16 | 275 | 3.2 | 6.4 | 0.00 | 0.00 | 0.00 | 61 | 1010.2 |
| 20260505035340 | 16 | 271 | 1.6 | 4.8 | 0.00 | 0.00 | 0.00 | 60 | 1010.2 |
| 20260505034333 | 17 | 223 | 3.2 | 9.7 | 0.00 | 0.00 | 0.00 | 59 | 1010.0 |
| 20260505033347 | 17 | 255 | 3.2 | 8.0 | 0.00 | 0.00 | 0.00 | 58 | 1010.0 |
| 20260505031334 | 17 | 249 | 3.2 | 11.3 | 0.00 | 0.00 | 0.00 | 57 | 1009.9 |
| 20260505025341 | 17 | 195 | 3.2 | 6.4 | 0.00 | 0.00 | 0.00 | 57 | 1010.1 |
| 20260505024340 | 16 | 248 | 1.6 | 6.4 | 0.00 | 0.00 | 0.00 | 57 | 1010.1 |
| 20260505022333 | 16 | 296 | 0.0 | 6.4 | 0.00 | 0.00 | 0.00 | 56 | 1010.2 |
| 20260505020343 | 17 | 138 | 0.0 | 4.8 | 0.00 | 0.00 | 0.00 | 54 | 1010.1 |
| 20260505015331 | 17 | 120 | 0.0 | 1.6 | 0.00 | 0.00 | 0.00 | 54 | 1010.2 |
| 20260505014329 | 17 | 189 | 0.0 | 1.6 | 0.00 | 0.00 | 0.00 | 53 | 1010.3 |
| 20260505013326 | 17 | 150 | 1.6 | 4.8 | 0.00 | 0.00 | 0.00 | 51 | 1010.4 |
| 20260505012344 | 18 | 337 | 1.6 | 4.8 | 0.00 | 0.00 | 0.00 | 51 | 1010.2 |
| 20260505011336 | 18 | 231 | 3.2 | 12.9 | 0.00 | 0.00 | 0.00 | 49 | 1010.1 |
| 20260505010327 | 18 | 138 | 1.6 | 14.5 | 0.00 | 0.00 | 0.00 | 49 | 1009.9 |
| 20260505005325 | 18 | 124 | 1.6 | 8.0 | 0.00 | 0.00 | 0.00 | 48 | 1009.7 |
| 20260505004344 | 18 | 158 | 3.2 | 12.9 | 0.00 | 0.00 | 0.00 | 48 | 1009.7 |
| 20260505003330 | 19 | 181 | 6.4 | 14.5 | 0.00 | 0.00 | 0.00 | 47 | 1009.7 |
| 20260505000337 | 20 | 181 | 4.8 | 16.1 | 0.00 | 0.00 | 0.00 | 45 | 1009.4 |
| 20260504235331 | 20 | 209 | 3.2 | 12.9 | 0.00 | 0.00 | 0.00 | 45 | 1009.4 |
| 20260504234332 | 20 | 129 | 3.2 | 11.3 | 0.00 | 0.00 | 0.00 | 44 | 1009.4 |
| 20260504233330 | 20 | 4 | 4.8 | 9.7 | 0.00 | 0.00 | 0.00 | 44 | 1009.4 |
| 20260504232343 | 21 | 224 | 1.6 | 20.9 | 0.00 | 0.00 | 0.00 | 43 | 1009.2 |
| 20260504231332 | 21 | 96 | 4.8 | 14.5 | 0.00 | 0.00 | 0.00 | 42 | 1009.4 |
| 20260504230325 | 21 | 143 | 6.4 | 12.9 | 0.00 | 0.00 | 0.00 | 42 | 1009.4 |
| 20260504225340 | 21 | 102 | 1.6 | 17.7 | 0.00 | 0.00 | 0.00 | 42 | 1009.4 |
| 20260504224336 | 21 | 155 | 4.8 | 12.9 | 0.00 | 0.00 | 0.00 | 41 | 1009.4 |
| 20260504223323 | 22 | 250 | 4.8 | 17.7 | 0.00 | 0.00 | 0.00 | 40 | 1009.4 |
| 20260504222336 | 22 | 243 | 6.4 | 22.5 | 0.00 | 0.00 | 0.00 | 41 | 1009.4 |
| 20260504221333 | 22 | 229 | 4.8 | 17.7 | 0.00 | 0.00 | 0.00 | 40 | 1009.4 |
| 20260504215326 | 23 | 266 | 8.0 | 19.3 | 0.00 | 0.00 | 0.00 | 37 | 1009.4 |
| 20260504214344 | 23 | 259 | 9.7 | 22.5 | 0.00 | 0.00 | 0.00 | 36 | 1009.4 |
| 20260504213324 | 23 | 227 | 8.0 | 19.3 | 0.00 | 0.00 | 0.00 | 37 | 1009.4 |
| 20260504212341 | 23 | 238 | 8.0 | 14.5 | 0.00 | 0.00 | 0.00 | 35 | 1009.5 |
| 20260504211338 | 23 | 250 | 6.4 | 14.5 | 0.00 | 0.00 | 0.00 | 35 | 1009.4 |
| 20260504210334 | 23 | 256 | 9.7 | 20.9 | 0.00 | 0.00 | 0.00 | 36 | 1009.4 |
| 20260504205348 | 23 | 264 | 4.8 | 14.5 | 0.00 | 0.00 | 0.00 | 37 | 1009.5 |
| 20260504204337 | 23 | 282 | 8.0 | 16.1 | 0.00 | 0.00 | 0.00 | 36 | 1009.5 |
| 20260504203327 | 23 | 264 | 6.4 | 19.3 | 0.00 | 0.00 | 0.00 | 36 | 1009.6 |
| 20260504202324 | 23 | 297 | 4.8 | 17.7 | 0.00 | 0.00 | 0.00 | 37 | 1009.7 |
| 20260504200336 | 23 | 210 | 8.0 | 20.9 | 0.00 | 0.00 | 0.00 | 35 | 1009.9 |
| 20260504195323 | 22 | 266 | 8.0 | 17.7 | 0.00 | 0.00 | 0.00 | 36 | 1010.2 |
| 20260504194336 | 22 | 212 | 11.3 | 17.7 | 0.00 | 0.00 | 0.00 | 36 | 1010.4 |
| 20260504193333 | 23 | 225 | 11.3 | 22.5 | 0.00 | 0.00 | 0.00 | 35 | 1010.4 |
| 20260504192329 | 23 | 259 | 8.0 | 20.9 | 0.00 | 0.00 | 0.00 | 38 | 1010.6 |
| 20260504191347 | 22 | 228 | 8.0 | 17.7 | 0.00 | 0.00 | 0.00 | 37 | 1010.7 |
| 20260504190452 | 22 | 232 | 11.3 | 24.1 | 0.00 | 0.00 | 0.00 | 36 | 1010.9 |
| 20260504185347 | 23 | 274 | 6.4 | 14.5 | 0.00 | 0.00 | 0.00 | 36 | 1011.0 |
| 20260504184342 | 22 | 200 | 8.0 | 17.7 | 0.00 | 0.00 | 0.00 | 37 | 1011.1 |
| 20260504183326 | 22 | 259 | 9.7 | 19.3 | 0.00 | 0.00 | 0.00 | 36 | 1011.3 |
| 20260504182339 | 22 | 246 | 6.4 | 16.1 | 0.00 | 0.00 | 0.00 | 36 | 1011.3 |
| 20260504181339 | 22 | 258 | 4.8 | 14.5 | 0.00 | 0.00 | 0.00 | 38 | 1011.4 |
| 20260504180333 | 22 | 146 | 4.8 | 20.9 | 0.00 | 0.00 | 0.00 | 38 | 1011.6 |
| 20260504175345 | 21 | 206 | 11.3 | 25.7 | 0.00 | 0.00 | 0.00 | 36 | 1011.8 |
| 20260504174336 | 22 | 257 | 3.2 | 19.3 | 0.00 | 0.00 | 0.00 | 39 | 1011.8 |
| 20260504173330 | 21 | 252 | 6.4 | 20.9 | 0.00 | 0.00 | 0.00 | 40 | 1012.0 |
| 20260504172329 | 21 | 224 | 6.4 | 19.3 | 0.00 | 0.00 | 0.00 | 36 | 1012.2 |
| 20260504171343 | 21 | 278 | 9.7 | 22.5 | 0.00 | 0.00 | 0.00 | 38 | 1012.3 |
| 20260504170329 | 21 | 287 | 8.0 | 17.7 | 0.00 | 0.00 | 0.00 | 37 | 1012.5 |
| 20260504150326 | 18 | 212 | 6.4 | 16.1 | 0.00 | 0.00 | 0.00 | 39 | 1014.1 |
| 20260504140330 | 16 | 233 | 3.2 | 12.9 | 0.00 | 0.00 | 0.00 | 47 | 1014.3 |
| 20260504130330 | 13 | 139 | 1.6 | 8.0 | 0.00 | 0.00 | 0.00 | 55 | 1014.6 |
| 20260504110322 | 7 | 233 | 0.0 | 1.6 | 0.00 | 0.00 | 0.00 | 75 | 1014.8 |